FW7227 Weather Reports


Display with metric or nautical units.
time (UTC)temp
F
wind
direction
speed
MPH
gust
MPH
rain 1hr
in
rain 24hr
in
rain mn
in
humidity
%
barometer
mb
20260504223601 57 0 0.0 0.0 0.01 0.26 0.00 92 1012.1
20260504223117 57 0 0.0 0.0 0.01 0.26 0.00 91 1012.2
20260504222557 57 0 0.0 0.0 0.01 0.26 0.00 91 1012.3
20260504222057 57 0 0.0 0.0 0.01 0.26 0.00 91 1012.4
20260504221555 57 0 0.0 0.0 0.01 0.26 0.00 91 1012.4
20260504221057 58 0 0.0 0.0 0.01 0.26 0.00 91 1012.5
20260504220557 58 0 0.0 0.0 0.01 0.26 0.00 91 1012.6
20260504215558 58 0 0.0 1.0 0.02 0.26 0.26 91 1012.8
20260504215057 58 0 0.0 2.0 0.01 0.25 0.25 91 1012.8
20260504214559 58 0 0.0 2.0 0.02 0.25 0.25 91 1012.8
20260504214100 58 0 0.0 2.0 0.02 0.25 0.25 91 1012.9
20260504213556 58 0 0.0 2.0 0.01 0.25 0.25 91 1012.9
20260504213109 58 0 0.0 2.0 0.01 0.25 0.25 91 1012.9
20260504212556 58 0 0.0 2.0 0.01 0.25 0.25 91 1012.9
20260504212058 58 0 0.0 0.0 0.02 0.25 0.25 91 1012.9
20260504211649 58 0 0.0 0.0 0.03 0.25 0.25 91 1013.0
20260504211059 58 0 0.0 0.0 0.03 0.25 0.25 90 1013.1
20260504210601 58 0 0.0 0.0 0.03 0.25 0.25 90 1013.1
20260504210056 58 0 0.0 1.0 0.03 0.25 0.25 90 1013.0
20260504205601 58 0 0.0 1.0 0.03 0.24 0.24 90 1013.1
20260504205056 58 360 0.0 3.0 0.03 0.24 0.24 90 1013.0
20260504204603 58 0 0.0 3.0 0.02 0.23 0.23 90 1013.0
20260504204057 58 360 1.0 3.0 0.03 0.23 0.23 90 1013.1
20260504203556 58 0 0.0 3.0 0.03 0.23 0.23 90 1013.2
20260504203108 58 360 1.0 3.0 0.06 0.23 0.23 89 1013.3
20260504202557 58 360 0.0 0.0 0.07 0.23 0.23 89 1013.3
20260504202057 58 0 0.0 0.0 0.08 0.22 0.22 89 1013.1
20260504201612 58 0 0.0 0.0 0.09 0.22 0.22 89 1013.2
20260504201056 58 0 0.0 0.0 0.11 0.22 0.22 88 1013.1
20260504200556 58 0 0.0 0.0 0.12 0.22 0.22 88 1013.1
20260504200057 58 0 0.0 0.0 0.14 0.21 0.21 88 1013.1
20260504195558 58 0 0.0 0.0 0.15 0.21 0.21 87 1013.0
20260504195057 59 0 0.0 0.0 0.17 0.21 0.21 87 1013.1
20260504194557 59 0 0.0 0.0 0.18 0.21 0.21 87 1013.0
20260504194057 59 0 0.0 2.0 0.18 0.20 0.20 87 1012.9
20260504193557 59 0 0.0 2.0 0.18 0.19 0.19 86 1012.8
20260504193107 59 360 0.0 3.0 0.17 0.17 0.17 85 1012.7
20260504192556 59 0 0.0 3.0 0.15 0.15 0.15 85 1012.9
20260504192056 59 0 0.0 6.0 0.14 0.14 0.14 85 1012.9
20260504191611 60 0 1.0 6.0 0.12 0.12 0.12 84 1012.8
20260504191058 60 360 1.0 9.0 0.11 0.11 0.11 84 1012.8
20260504190558 60 360 3.0 10.0 0.09 0.09 0.09 83 1012.8
20260504190108 60 360 4.0 11.0 0.07 0.07 0.07 82 1012.7
20260504185557 61 360 6.0 14.0 0.05 0.05 0.05 80 1012.8
20260504185100 62 360 6.0 14.0 0.03 0.03 0.03 79 1012.7
20260504184559 63 360 8.0 18.0 0.03 0.03 0.03 77 1012.5
20260504184057 64 360 9.0 18.0 0.01 0.01 0.01 74 1012.4
20260504183600 65 360 9.0 18.0 0.00 0.00 0.00 72 1012.4
20260504183057 66 234 3.0 6.0 0.00 0.00 0.00 70 1012.1
20260504182558 67 0 0.0 1.0 0.00 0.00 0.00 66 1011.9
20260504182057 67 0 0.0 6.0 0.00 0.00 0.00 63 1011.7
20260504181601 67 0 0.0 6.0 0.00 0.00 0.00 62 1011.7
20260504181058 67 0 1.0 5.0 0.00 0.00 0.00 62 1011.6
20260504180557 67 70 2.0 9.0 0.00 0.00 0.00 61 1011.6
20260504180059 67 76 3.0 9.0 0.00 0.00 0.00 60 1011.5
20260504175559 68 346 5.0 9.0 0.00 0.00 0.00 59 1011.4
20260504175057 68 25 2.0 6.0 0.00 0.00 0.00 58 1011.4
20260504174556 68 340 2.0 6.0 0.00 0.00 0.00 58 1011.3
20260504174058 68 346 3.0 9.0 0.00 0.00 0.00 58 1011.4
20260504173600 69 34 2.0 9.0 0.00 0.00 0.00 57 1011.4
20260504173059 69 24 5.0 10.0 0.00 0.00 0.00 57 1011.4
20260504172557 69 32 5.0 11.0 0.00 0.00 0.00 56 1011.4
20260504172057 69 29 5.0 11.0 0.00 0.00 0.00 56 1011.4
20260504171557 70 21 4.0 9.0 0.00 0.00 0.00 54 1011.4
20260504171057 70 44 2.0 8.0 0.00 0.00 0.00 54 1011.4
20260504170558 70 41 3.0 8.0 0.00 0.00 0.00 53 1011.4
20260504151101 73 265 4.0 10.0 0.00 0.00 0.00 49 1011.6
20260504150557 73 325 3.0 8.0 0.00 0.00 0.00 48 1011.7
20260504141056 73 238 3.0 8.0 0.00 0.00 0.00 49 1011.8
20260504140556 73 0 2.0 8.0 0.00 0.00 0.00 47 1011.9
20260504130557 74 290 3.0 9.0 0.00 0.00 0.00 49 1012.4
20260504110556 71 248 5.0 10.0 0.00 0.00 0.00 53 1012.9
20260504100557 70 223 3.0 10.0 0.00 0.00 0.00 60 1013.2
20260504081556 65 229 6.0 13.0 0.00 0.00 0.00 66 1013.6
20260504081057 65 259 7.0 13.0 0.00 0.00 0.00 67 1013.5
20260504080558 64 234 5.0 11.0 0.00 0.00 0.00 68 1013.6
20260504070111 61 360 4.0 9.0 0.00 0.00 0.00 71 1013.1
20260504050556 56 253 3.0 7.0 0.00 0.00 0.00 75 1012.5
20260504045557 56 229 2.0 7.0 0.00 0.00 0.00 75 1012.3
20260504045055 56 234 3.0 7.0 0.00 0.00 0.00 75 1012.2
20260504044557 56 230 2.0 6.0 0.00 0.00 0.00 75 1012.1
20260504044055 56 360 2.0 5.0 0.00 0.00 0.00 75 1012.1
20260504043555 56 360 2.0 5.0 0.00 0.00 0.00 75 1012.0
20260504043100 55 360 2.0 4.0 0.00 0.00 0.00 75 1011.9
20260504042555 55 360 1.0 4.0 0.00 0.00 0.00 75 1011.9
20260504042056 55 0 1.0 6.0 0.00 0.00 0.00 75 1011.9
20260504041555 55 219 2.0 8.0 0.00 0.00 0.00 75 1011.9
20260504041057 55 360 3.0 8.0 0.00 0.00 0.00 76 1011.8
20260504040557 55 360 3.0 8.0 0.00 0.00 0.00 76 1012.0
20260504040137 55 360 2.0 6.0 0.00 0.00 0.00 76 1011.8
20260504035557 55 360 2.0 6.0 0.00 0.00 0.00 76 1011.8
20260504035100 55 360 2.0 5.0 0.00 0.00 0.00 75 1011.8
20260504034604 55 360 1.0 4.0 0.00 0.00 0.00 75 1011.9
20260504034058 55 360 0.0 4.0 0.00 0.00 0.00 75 1011.9
20260504033558 54 360 1.0 6.0 0.00 0.00 0.00 75 1011.9
20260504033058 54 360 2.0 6.0 0.00 0.00 0.00 75 1011.9
20260504032557 54 360 3.0 8.0 0.00 0.00 0.00 75 1011.7
20260504032102 54 360 3.0 8.0 0.00 0.00 0.00 75 1011.8
20260504031621 54 360 4.0 8.0 0.00 0.00 0.00 75 1011.8
20260504031057 54 360 3.0 6.0 0.00 0.00 0.00 75 1011.8
20260504030557 54 360 3.0 8.0 0.00 0.00 0.00 75 1011.8
20260504030057 55 360 3.0 8.0 0.00 0.00 0.00 75 1011.8
20260504025557 55 360 4.0 8.0 0.00 0.00 0.00 74 1011.8
20260504025058 55 360 4.0 8.0 0.00 0.00 0.00 73 1011.8
20260504024603 55 360 3.0 6.0 0.00 0.00 0.00 73 1011.8
20260504024057 56 360 3.0 5.0 0.00 0.00 0.00 72 1011.7
20260504023557 56 360 2.0 5.0 0.00 0.00 0.00 71 1011.7
20260504023055 56 360 2.0 5.0 0.00 0.00 0.00 71 1011.7
20260504022557 56 360 2.0 5.0 0.00 0.00 0.00 70 1011.7
20260504022057 57 360 3.0 6.0 0.00 0.00 0.00 70 1011.7
20260504021628 57 360 3.0 6.0 0.00 0.00 0.00 70 1011.7
20260504021557 57 360 3.0 6.0 0.00 0.00 0.00 70 1011.7
20260504021056 57 360 3.0 5.0 0.00 0.00 0.00 69 1011.7
20260504020600 57 360 2.0 4.0 0.00 0.00 0.00 69 1011.7
20260504020112 57 236 3.0 5.0 0.00 0.00 0.00 69 1011.6
20260504015559 57 360 3.0 5.0 0.00 0.00 0.00 69 1011.7
20260504015058 58 360 3.0 5.0 0.00 0.00 0.00 69 1011.6
20260504014556 58 360 3.0 6.0 0.00 0.00 0.00 69 1011.6
20260504014054 58 360 3.0 6.0 0.00 0.00 0.00 69 1011.6
20260504013557 58 232 3.0 8.0 0.00 0.00 0.00 69 1011.6
20260504013058 58 360 3.0 8.0 0.00 0.00 0.00 69 1011.7
20260504012557 58 360 3.0 6.0 0.00 0.00 0.00 68 1011.9
20260504012057 59 360 2.0 4.0 0.00 0.00 0.00 68 1011.9
20260504011556 59 360 1.0 8.0 0.00 0.00 0.00 68 1011.8
20260504011058 59 360 1.0 8.0 0.00 0.00 0.00 68 1011.7
20260504010556 59 246 3.0 8.0 0.00 0.00 0.00 68 1011.6
20260504010058 59 360 4.0 8.0 0.00 0.00 0.00 68 1011.6
20260504005557 59 230 2.0 8.0 0.00 0.00 0.00 68 1011.5
20260504005057 59 231 2.0 8.0 0.00 0.00 0.00 67 1011.5
20260504004600 60 360 2.0 5.0 0.00 0.00 0.00 67 1011.5
20260504004058 60 221 2.0 5.0 0.00 0.00 0.00 67 1011.5
20260504003557 60 219 1.0 5.0 0.00 0.00 0.00 67 1011.5
20260504003100 60 360 2.0 6.0 0.00 0.00 0.00 67 1011.5
20260504002557 60 360 3.0 6.0 0.00 0.00 0.00 67 1011.5
20260504002057 60 360 3.0 8.0 0.00 0.00 0.00 66 1011.4
20260504001603 60 360 3.0 8.0 0.00 0.00 0.00 66 1011.4
20260504001057 61 360 1.0 4.0 0.00 0.00 0.00 66 1011.4
20260504000557 61 0 0.0 3.0 0.00 0.00 0.00 66 1011.4
20260504000056 61 360 1.0 4.0 0.00 0.00 0.00 66 1011.5
20260503235558 61 245 2.0 7.0 0.00 0.00 0.00 66 1011.5
20260503235100 61 242 3.0 8.0 0.00 0.00 0.00 66 1011.5
20260503234628 61 240 2.0 9.0 0.00 0.00 0.00 66 1011.5
20260503234100 61 234 4.0 9.0 0.00 0.00 0.00 66 1011.4
20260503233557 61 360 3.0 9.0 0.00 0.00 0.00 65 1011.4
20260503233100 61 360 3.0 8.0 0.00 0.00 0.00 65 1011.4
20260503232557 61 360 3.0 7.0 0.00 0.00 0.00 65 1011.3
20260503232057 61 360 3.0 8.0 0.00 0.00 0.00 65 1011.3
20260503231558 61 360 2.0 8.0 0.00 0.00 0.00 64 1011.3
20260503231057 61 360 3.0 8.0 0.00 0.00 0.00 63 1011.4
20260503230600 61 360 2.0 4.0 0.00 0.00 0.00 63 1011.5
20260503230058 62 0 1.0 4.0 0.00 0.00 0.00 63 1011.6
20260503225557 62 0 0.0 2.0 0.00 0.00 0.00 61 1011.7
20260503225058 62 0 0.0 4.0 0.00 0.00 0.00 61 1011.7
20260503224557 62 0 0.0 4.0 0.00 0.00 0.00 61 1011.6
20260503224058 62 360 2.0 4.0 0.00 0.00 0.00 61 1011.7